Location: York
(31.8935°S, 116.7682°E)
Time: 10:39:49
(UTC+08:00)

JUGNU - Visible Passes

Search period start: 26 July 2021 00:00
Search period end: 05 August 2021 00:00
Orbit: 836 x 864 km, 20.0° (Epoch: 25 July)

Date Brightness Start Highest point End Pass type
(mag) Time Alt. Az. Time Alt. Az. Time Alt. Az.
26 Jul ? 19:30:57 10° NW 19:35:14 21° N 19:35:56 20° NNE visible
27 Jul ? 19:15:34 10° NW 19:19:57 21° N 19:21:43 19° NNE visible
28 Jul ? 19:00:11 10° NW 19:04:39 22° N 19:07:31 16° NE visible
28 Jul ? 20:48:21 10° NW 20:49:22 14° NW 20:49:22 14° NW visible
29 Jul ? 18:44:51 10° NW 18:49:23 23° N 18:53:20 12° NE visible
29 Jul ? 20:33:06 10° WNW 20:35:10 18° NW 20:35:10 18° NW visible
30 Jul ? 18:29:30 10° NW 18:34:05 24° N 18:38:43 10° ENE visible
30 Jul ? 20:17:53 10° WNW 20:20:59 22° NNW 20:20:59 22° NNW visible
31 Jul ? 18:14:11 10° NW 18:18:49 24° N 18:23:29 10° ENE visible
31 Jul ? 20:02:41 10° WNW 20:06:50 23° NNW 20:06:50 23° NNW visible
01 Aug ? 17:58:53 10° NW 18:03:32 25° N 18:08:14 10° NE visible
01 Aug ? 19:47:28 10° WNW 19:51:59 23° N 19:52:42 22° N visible
02 Aug ? 19:32:17 10° WNW 19:36:42 22° N 19:38:36 19° NNE visible
03 Aug ? 19:17:08 10° WNW 19:21:25 21° N 19:24:32 14° NNE visible
04 Aug ? 19:01:59 10° NW 19:06:09 20° N 19:10:19 10° NE visible
